Content
SEND FEEDBACK

Daily
Averages
Monthly
Summary
United States of America

SOUTHPORT, NORTH CAROLINA


Home > North America > United States > North Carolina
Elevation: 38 feet     Latitude: 34 00N     Longitude: 078 01W

WEATHER
 
SELECT A DAY
Number of Records: 143,820;   Date Range: 8/21/01 - 10/21/14
 
SHARE

PRINT THIS DATA

[ ← Previous Day ]
WEATHER ALMANAC - JULY 26, 2013
[ Next Day → ]
[ °C ]   °F
Weather ElementAverageHighLow
Temperature77 °F83.8 °F (3:35 pm)69.4 °F (6:35 am)
Dewpoint69.3 °F71.4 °F (10:15 am)66.4 °F (6:35 pm)
Humidity77.8 %94 % (6:15 am)61 % (5:35 pm)
Barometer30.05 in30.09 in (10:15 am)29.99 in (2:35 am)
Wind Speed4.8 mph10.4 mph (4:35 pm)
Weather ElementAverage
Visibility10 mi
Wind DirectionENE (64.5 °)

Weather ElementTotal
Precipitation---
Cooling Degree Days11.6 (Base 65)
Growing Degree Days26.6 (Base 50)
Averaged from 71 records on July 26, 2013
WEATHER CONDITIONS BREAKOUT
WIND DIRECTION BREAKOUT
WEATHER BY HOUR - JULY 26, 2013
[ °C ]   °F
Local TimeTemperatureDewpointHumidityBarometerVisibilityWind DirectionWind SpeedGust SpeedPrecipitationEventsConditions
12:35 AM74.3 °F70.5 °F88 %30.00 in10.0 miNorth (360°)3.5 mphClear
12:55 AM74.1 °F70.5 °F88 %30.00 in10.0 miNNE (20°)3.5 mphClear
1:15 AM73.4 °F70.0 °F89 %30.00 in10.0 miCalmClear
1:35 AM72.9 °F70.0 °F91 %30.00 in10.0 miNorth (360°)4.6 mphClear
1:55 AM72.5 °F69.4 °F90 %30.00 in10.0 miNNE (30°)3.5 mphClear
2:15 AM72.7 °F69.3 °F89 %30.00 in10.0 miNNE (20°)3.5 mphClear
2:35 AM72.5 °F68.9 °F88 %29.99 in10.0 miCalmClear
2:55 AM72.5 °F68.9 °F88 %29.99 in10.0 miNNE (30°)3.5 mphClear
3:15 AM71.4 °F68.5 °F91 %29.99 in10.0 miNNE (20°)4.6 mphClear
3:35 AM71.1 °F68.2 °F91 %30.00 in10.0 miNNE (20°)3.5 mphClear
3:55 AM71.1 °F68.2 °F91 %30.00 in10.0 miNNE (20°)3.5 mphClear
4:15 AM70.9 °F68.0 °F91 %30.00 in10.0 miCalmClear
4:35 AM70.7 °F68.0 °F91 %30.01 in10.0 miNNE (20°)3.5 mphClear
4:55 AM70.3 °F68.0 °F92 %30.01 in10.0 miNNE (20°)3.5 mphClear
5:15 AM70.2 °F68.0 °F93 %30.02 in10.0 miNNE (20°)3.5 mphClear
5:35 AM70.0 °F67.8 °F93 %30.03 in10.0 miCalmClear
5:55 AM69.8 °F67.6 °F93 %30.03 in10.0 miCalmClear
6:15 AM69.8 °F68.0 °F94 %30.03 in10.0 miCalmClear
6:35 AM69.4 °F67.5 °F93 %30.04 in10.0 miNNE (20°)3.5 mphClear
6:55 AM69.6 °F67.8 °F94 %30.05 in10.0 miNNE (30°)3.5 mphScattered Clouds
7:15 AM70.3 °F68.4 °F93 %30.05 in10.0 miNNE (30°)3.5 mphScattered Clouds
7:35 AM71.2 °F68.9 °F92 %30.06 in10.0 miNNE (20°)3.5 mphScattered Clouds
7:55 AM72.5 °F69.4 °F90 %30.06 in10.0 miNNE (30°)5.8 mphMostly Cloudy
8:15 AM73.4 °F69.6 °F88 %30.06 in10.0 miNE (40°)4.6 mphMostly Cloudy
8:35 AM75.7 °F70.9 °F85 %30.06 in10.0 miENE (60°)6.9 mphMostly Cloudy
8:55 AM76.1 °F70.7 °F83 %30.07 in10.0 miNE (50°)8.1 mphMostly Cloudy
9:15 AM76.8 °F70.7 °F81 %30.07 in10.0 miNE (50°)8.1 mphMostly Cloudy
9:35 AM78.6 °F71.1 °F78 %30.07 in10.0 miEast (80°)8.1 mphMostly Cloudy
9:55 AM78.8 °F71.2 °F78 %30.08 in10.0 miEast (80°)4.6 mphMostly Cloudy
10:15 AM79.3 °F71.4 °F77 %30.09 in10.0 miENE (70°)5.8 mphMostly Cloudy
10:35 AM79.9 °F71.2 °F75 %30.09 in10.0 miEast (80°)4.6 mphMostly Cloudy
10:55 AM80.4 °F71.4 °F74 %30.09 in10.0 miNE (50°)8.1 mphScattered Clouds
11:15 AM81.3 °F71.2 °F71 %30.09 in10.0 miENE (70°)6.9 mphScattered Clouds
11:35 AM81.1 °F71.2 °F72 %30.09 in10.0 miENE (70°)6.9 mphScattered Clouds
11:55 AM81.3 °F71.1 °F71 %30.09 in10.0 miENE (70°)8.1 mphClear
12:15 PM82.0 °F71.1 °F69 %30.08 in10.0 miEast (90°)5.8 mphScattered Clouds
12:35 PM83.1 °F70.9 °F66 %30.08 in10.0 miEast (80°)5.8 mphScattered Clouds
12:55 PM82.4 °F69.8 °F66 %30.09 in10.0 miEast (80°)6.9 mphScattered Clouds
1:15 PM82.8 °F70.3 °F66 %30.08 in10.0 miEast (100°)8.1 mphScattered Clouds
1:35 PM82.9 °F70.9 °F67 %30.08 in10.0 miEast (100°)8.1 mphClear
1:55 PM82.9 °F71.2 °F68 %30.08 in10.0 miEast (100°)8.1 mphScattered Clouds
2:15 PM82.9 °F71.2 °F68 %30.07 in10.0 miENE (70°)6.9 mphScattered Clouds
2:35 PM82.9 °F71.1 °F67 %30.07 in10.0 miESE (110°)6.9 mphScattered Clouds
2:55 PM83.7 °F70.5 °F64 %30.06 in10.0 miENE (60°)5.8 mphScattered Clouds
3:15 PM83.7 °F70.3 °F64 %30.06 in10.0 miEast (90°)8.1 mphClear
3:35 PM83.8 °F69.4 °F62 %30.06 in10.0 miEast (80°)6.9 mphClear
3:55 PM83.1 °F70.0 °F64 %30.05 in10.0 miESE (110°)9.2 mphClear
4:15 PM83.5 °F69.4 °F62 %30.05 in10.0 miESE (120°)9.2 mphClear
4:35 PM83.1 °F69.3 °F63 %30.05 in10.0 miEast (90°)10.4 mphClear
4:55 PM82.8 °F68.4 °F62 %30.05 in10.0 miESE (110°)6.9 mphClear
5:15 PM81.3 °F67.8 °F63 %30.05 in10.0 miEast (90°)6.9 mphClear
5:35 PM81.5 °F66.7 °F61 %30.05 in10.0 miESE (110°)9.2 mphClear
5:55 PM81.0 °F67.3 °F63 %30.06 in10.0 miEast (100°)10.4 mphClear
6:15 PM81.0 °F67.1 °F63 %30.05 in10.0 miEast (90°)5.8 mphClear
6:35 PM80.2 °F66.4 °F63 %30.05 in10.0 miESE (110°)8.1 mphClear
6:55 PM80.2 °F66.6 °F63 %30.05 in10.0 miEast (100°)4.6 mphClear
7:15 PM79.7 °F66.7 °F64 %30.05 in10.0 miEast (100°)6.9 mphClear
7:35 PM79.3 °F67.8 °F68 %30.05 in10.0 miEast (90°)5.8 mphClear
7:55 PM78.1 °F68.2 °F71 %30.05 in10.0 miEast (90°)5.8 mphClear
8:15 PM77.5 °F69.3 °F76 %30.05 in10.0 miEast (90°)4.6 mphClear
8:35 PM77.2 °F69.4 °F77 %30.05 in10.0 miEast (100°)4.6 mphClear
8:55 PM77.0 °F69.3 °F77 %30.06 in10.0 miEast (90°)3.5 mphClear
9:15 PM76.6 °F69.1 °F77 %30.06 in10.0 miCalmClear
9:35 PM76.8 °F69.6 °F78 %30.06 in10.0 miEast (100°)3.5 mphClear
9:55 PM76.3 °F69.3 °F79 %30.06 in10.0 miCalmClear
10:15 PM76.3 °F69.3 °F79 %30.06 in10.0 miEast (90°)3.5 mphClear
10:35 PM76.1 °F68.9 °F78 %30.06 in10.0 miCalmClear
10:55 PM76.1 °F68.9 °F78 %30.06 in10.0 miCalmClear
11:15 PM76.1 °F68.5 °F77 %30.05 in10.0 miCalmClear
11:35 PM75.6 °F68.7 °F79 %30.06 in10.0 miCalmClear
11:55 PM73.6 °F68.4 °F84 %30.06 in10.0 miCalmClear
Hourly data recorded from KSUT, located miles away from Southport, North Carolina







STORIES FROM OUR PARTNERS